Location: Proctor
(47.8934°N, 114.3048°W)
Time: 21:49:50
(UTC+00:00)

POLYITAN 1 - Pass Details

Date: 08 July 2022
Orbit: 586 x 604 km, 98.0° (Epoch: 11 August)

Event Time Altitude Azimuth Distance (km) Brightness Sun altitude
Rises 08:53:09 0° 21° (NNE) 2,867 ? -17.9°
Reaches altitude 10° 08:55:29 10° 31° (NNE) 1,961 ? -17.8°
Maximum altitude 08:59:23 34° 97° (E) 998 ? -17.6°
Enters shadow 09:01:34 21° 148° (SSE) 1,372 ? -17.4°
